Theta_e
310 310 310 309 309 309 309 309 309 309 309 309 309 310 313 315 316 317 323 333 323 319 321 323 322 319 319 318 314 320 318 317 315 311 310 311 310 312 310 312 311 310 309 308 308 305 302 318 316 310 317 320 320 320
310 310 310 309 309 309 308 308 308 308 308 308 308 309 311 314 315 315 316 330 328 320 319 325 326 327 325 324 321 320 318 320 320 315 315 314 311 312 311 305 316 308 312 309 312 312 319 320 318 320 320 319 320 320
310 310 310 309 309 309 308 307 307 307 308 308 308 308 309 310 313 313 316 321 320 317 317 318 318 324 326 326 328 317 321 322 320 322 317 316 311 314 308 310 312 316 318 312 312 315 317 319 321 322 321 320 321 321
310 309 309 310 309 309 308 308 307 307 307 307 308 308 309 310 310 310 312 320 319 316 310 313 324 324 327 327 325 325 323 325 323 321 316 313 310 316 311 314 313 315 317 314 314 317 318 320 320 321 322 322 321 321
309 309 309 309 309 309 309 309 308 308 308 308 308 308 308 308 309 309 312 315 319 315 308 315 322 325 326 325 324 324 322 320 318 316 313 312 316 315 316 316 312 317 315 312 311 318 318 319 322 322 321 319 319 319
309 309 309 309 309 309 309 309 309 308 308 309 308 308 308 308 308 309 308 315 318 320 310 303 315 316 321 324 322 322 323 322 320 317 315 318 320 317 311 311 317 319 320 320 317 320 320 322 322 322 319 319 321 321
309 309 309 309 309 309 309 309 309 309 309 309 308 308 309 309 305 303 303 309 313 320 309 304 306 313 320 321 321 320 322 320 320 318 316 317 318 317 313 309 316 319 321 321 322 321 319 320 318 321 321 322 321 321
308 308 308 308 309 308 309 309 309 309 308 308 308 308 309 308 306 302 306 310 311 312 312 304 306 313 321 314 313 321 318 319 319 317 319 316 318 317 311 317 319 320 321 321 321 321 320 321 321 320 321 320 318 318
308 308 308 308 308 308 309 309 309 309 308 307 308 308 307 303 301 306 315 313 313 309 305 307 304 306 319 316 317 317 318 313 319 314 315 316 314 311 316 319 319 320 320 319 320 320 319 318 318 319 319 318 317 317
308 308 308 308 308 308 308 309 308 309 308 307 307 303 300 307 315 315 312 307 306 305 304 303 311 307 314 313 314 314 315 311 308 313 317 312 310 318 320 322 322 322 321 320 316 316 317 317 317 317 317 317 318 317
308 308 308 308 307 307 307 308 308 307 306 305 302 301 309 314 310 304 298 297 300 299 305 304 306 305 316 309 308 315 311 312 306 310 310 310 308 316 321 321 325 324 322 319 318 318 319 318 317 316 317 319 319 318
308 308 308 307 307 307 307 307 307 305 307 305 301 304 307 303 301 297 295 298 298 297 304 303 303 306 309 314 312 311 309 310 304 314 308 305 313 322 323 321 322 322 320 318 319 318 318 318 318 319 319 319 319 320
307 307 307 306 306 306 307 307 307 306 304 307 300 296 297 295 289 292 290 293 297 302 304 306 303 306 308 311 309 308 304 303 312 306 305 309 320 321 322 321 320 321 319 318 318 319 319 319 320 320 319 320 321 323
306 306 306 306 306 306 306 306 307 306 303 295 291 285 291 290 293 297 297 298 302 304 305 307 304 303 306 304 304 300 304 305 300 300 303 313 320 321 322 321 319 317 317 317 318 318 319 319 319 322 323 322 320 318
306 305 305 306 306 306 306 306 306 304 298 292 289 287 292 298 301 303 303 304 308 311 311 308 306 307 304 300 302 302 300 297 300 301 309 318 322 322 320 318 319 318 318 317 319 319 319 320 322 324 324 326 326 323
305 305 306 305 306 305 305 305 304 301 296 293 292 290 296 296 298 299 302 304 308 309 305 307 301 299 299 302 300 299 299 299 304 312 318 320 320 321 321 320 320 320 320 320 321 320 322 323 324 324 325 326 324 322
304 303 304 305 306 305 305 302 298 293 291 290 293 299 298 296 295 295 298 299 306 307 299 302 295 294 303 298 298 303 302 309 314 316 319 322 321 322 322 321 321 321 321 322 322 324 324 327 326 325 326 325 324 324
304 306 305 305 305 303 300 300 294 292 290 293 292 296 299 300 298 299 301 302 303 299 299 292 295 294 295 296 298 308 311 315 316 317 318 321 322 322 320 320 320 322 322 322 324 325 327 324 326 325 327 323 322 322
307 308 305 305 304 299 294 293 296 290 293 296 297 299 299 299 301 302 302 305 305 302 299 297 295 294 298 305 303 306 312 313 313 315 316 319 320 319 320 321 322 321 322 323 325 324 326 327 323 324 324 323 322 323
304 304 306 304 305 299 293 294 298 295 292 296 298 296 297 297 301 302 302 304 305 300 294 295 297 298 303 306 308 305 306 314 315 313 313 315 316 318 317 317 318 321 321 325 325 315 325 323 324 325 324 324 323 323
304 306 304 303 300 301 295 294 294 296 296 295 299 299 297 299 296 298 297 302 301 298 297 301 302 304 307 308 308 307 310 313 311 313 313 315 316 314 313 317 320 322 322 321 320 324 318 322 323 325 325 324 325 326
303 304 301 302 297 296 294 298 295 297 294 296 296 297 295 294 296 298 301 297 298 300 302 302 303 303 304 306 308 309 312 313 314 310 307 309 312 311 311 316 318 319 321 319 324 326 326 325 325 325 324 325 323 326
303 303 301 298 293 291 291 300 292 293 290 293 295 291 291 293 299 305 295 298 300 303 304 305 306 308 307 309 312 314 314 312 309 310 312 312 312 313 315 318 320 320 320 321 329 324 324 315 321 325 326 326 326 324
302 298 293 291 291 290 296 292 293 291 292 291 291 290 293 296 301 298 296 299 303 305 305 308 304 304 306 308 305 306 308 309 309 311 313 311 311 313 318 320 321 323 323 326 326 326 325 325 315 325 323 323 323 322
291 291 293 287 294 290 289 292 292 291 290 292 291 292 294 299 293 293 295 301 306 306 308 308 306 305 302 303 305 306 311 309 310 310 312 313 314 317 319 321 323 322 325 326 325 325 323 323 323 322 320 320 320 319
285 293 291 293 293 292 292 290 291 291 292 292 293 297 298 294 290 289 293 302 306 311 311 307 306 303 303 306 306 307 309 312 313 311 314 317 318 318 318 319 320 321 327 329 328 325 323 323 322 321 320 318 306 318
287 291 296 301 298 297 294 296 298 295 292 292 296 295 294 290 288 292 302 307 310 316 321 313 312 309 308 308 310 313 314 315 315 316 320 323 324 324 323 322 324 323 327 325 329 325 321 320 319 319 319 321 322 320
294 295 292 296 296 298 293 293 293 293 295 299 298 294 293 294 294 303 309 314 313 315 317 316 315 315 314 314 315 316 317 320 321 322 323 323 326 327 330 327 327 306 325 328 327 325 323 322 321 320 320 319 320 321
295 298 297 293 294 295 295 294 295 298 301 300 298 297 298 305 308 310 312 312 315 315 316 314 316 319 318 319 320 320 320 320 318 317 316 317 320 319 322 325 329 328 330 329 300 308 318 320 320 321 322 320 320 321
295 299 294 293 292 292 297 299 299 302 304 305 305 305 306 308 311 315 314 314 313 313 315 316 317 317 316 317 317 317 319 320 320 319 318 320 322 327 324 327 326 325 327 325 323 322 306 317 314 322 320 321 322 320
300 301 294 294 293 299 303 305 306 307 307 306 308 306 306 308 312 316 317 317 318 318 316 315 316 317 317 318 318 318 318 321 323 327 333 331 329 329 329 328 327 326 324 323 322 321 321 319 321 320 318 319 320 316
297 296 295 293 297 303 304 303 303 303 305 305 304 307 308 307 307 313 315 317 317 316 313 316 318 318 320 322 323 326 308 325 327 328 332 333 328 328 326 327 327 328 326 323 322 321 322 321 321 319 319 319 321 320
295 296 297 296 296 298 303 302 301 300 302 301 303 305 304 303 301 311 321 322 321 323 321 324 326 328 329 331 331 331 316 330 321 308 306 309 309 315 325 326 326 325 324 323 322 322 321 322 321 322 322 321 322 322
Wind_Speed
13 12 12 12 13 13 13 12 12 12 13 13 14 14 15 14 11 9 9 2 7 8 15 14 11 11 10 7 9 5 4 11 9 10 11 10 10 8 11 13 11 8 10 10 10 11 15 9 4 6 9 8 9 8
12 12 12 12 12 11 12 12 12 12 12 12 13 13 13 13 12 10 7 2 6 8 13 16 15 16 16 18 13 11 11 6 4 5 6 6 6 6 8 11 10 9 10 10 9 6 3 2 5 6 8 9 10 10
13 13 13 12 11 11 11 11 11 12 11 11 12 12 12 12 10 9 8 7 7 11 13 18 17 20 21 18 15 11 7 10 8 6 8 5 5 7 9 10 12 12 8 7 12 10 9 11 9 11 10 10 13 13
13 13 13 12 12 12 11 11 11 11 12 12 11 12 12 11 7 9 8 6 4 8 8 11 13 11 8 11 18 18 19 5 7 6 8 8 9 9 11 12 12 7 5 7 12 13 15 15 8 7 13 13 15 14
14 14 13 14 13 13 13 13 12 12 12 13 12 12 11 9 8 9 10 8 8 7 6 9 17 12 10 12 14 13 16 17 12 9 9 11 10 12 9 11 12 9 12 10 11 10 10 11 12 14 15 13 12 13
13 14 14 15 14 14 14 14 14 13 12 13 11 11 10 10 8 8 6 10 10 7 6 7 6 17 15 14 19 14 11 12 12 11 10 11 14 7 8 12 14 14 7 10 10 8 11 13 11 14 12 9 14 16
14 14 15 15 15 15 14 14 14 13 12 12 11 10 9 7 6 7 6 4 8 3 4 7 7 16 14 12 10 10 14 10 10 11 13 12 11 5 12 16 15 17 10 12 11 9 12 12 11 8 12 13 12 14
14 14 15 15 15 14 14 14 13 10 9 9 10 9 9 8 9 7 7 10 3 4 6 7 7 6 11 10 11 9 9 10 11 11 11 13 10 11 14 15 14 17 15 12 8 7 9 10 10 12 10 12 15 16
15 15 16 15 15 15 15 14 13 10 7 7 10 11 6 5 4 0 7 14 3 3 4 5 10 7 8 10 9 7 7 9 7 12 14 11 12 11 9 14 13 13 10 7 3 8 6 8 9 11 14 16 17 18
15 14 15 16 15 15 14 13 11 10 7 6 8 3 5 4 19 11 6 5 5 4 4 6 12 8 5 9 8 8 7 9 8 12 8 14 17 19 17 13 11 6 5 6 10 9 4 8 11 14 16 17 16 15
15 14 14 13 14 13 11 12 6 3 6 4 4 4 3 5 6 5 6 5 6 6 9 7 14 11 2 5 4 5 2 6 9 8 12 8 13 15 18 17 5 7 6 4 4 5 8 11 13 15 16 16 15 16
13 13 13 11 10 13 13 14 11 5 4 2 1 5 3 3 6 6 7 6 8 7 7 14 16 13 7 4 4 2 5 5 7 5 7 9 5 11 8 7 7 7 6 6 6 8 11 13 13 15 15 15 15 16
13 11 11 9 9 10 12 13 12 9 3 3 1 5 4 2 5 8 10 6 6 6 5 8 7 10 9 4 7 5 6 6 4 6 7 7 11 9 10 10 10 7 6 5 8 10 12 14 14 14 14 14 17 14
12 11 10 10 9 10 8 9 11 9 4 3 3 5 5 6 7 6 7 4 6 5 6 7 8 5 5 8 6 6 7 5 11 9 15 9 12 12 10 8 7 6 3 7 9 11 12 12 12 12 12 10 9 8
10 8 10 9 10 8 8 10 11 2 2 3 3 5 8 8 7 5 9 3 3 2 2 3 3 0 7 5 6 6 5 7 6 13 4 13 15 12 9 6 3 2 6 7 10 10 11 11 12 11 11 14 9 8
6 7 6 6 6 6 4 5 3 1 2 4 5 4 5 7 5 9 7 2 6 3 2 3 3 4 6 5 9 9 5 6 7 6 12 13 13 10 6 3 1 4 6 8 9 10 10 11 12 11 8 10 7 6
6 3 1 2 7 7 11 2 1 3 4 4 6 10 8 4 5 4 5 6 5 3 2 4 5 4 2 5 4 4 10 4 7 11 10 12 11 8 5 2 2 5 6 8 8 9 9 11 10 8 12 6 7 4
3 3 1 3 6 6 2 0 2 3 6 6 6 8 7 7 5 5 5 6 1 4 1 1 3 3 4 3 8 3 4 6 10 11 10 9 7 5 2 1 4 5 6 6 6 7 7 10 9 8 10 5 4 2
4 2 7 11 5 3 3 2 3 4 8 7 8 9 9 8 7 10 7 6 5 5 2 3 5 4 4 3 5 11 3 9 9 10 8 7 5 3 1 3 5 5 5 5 4 6 6 4 8 10 9 5 4 2
0 1 11 7 4 3 3 3 2 6 5 5 6 8 8 7 9 7 7 7 7 4 4 6 6 4 5 3 3 6 11 4 8 8 8 7 6 3 1 4 4 5 6 6 4 4 5 7 6 9 8 6 6 5
4 4 7 1 1 3 3 2 4 4 5 5 6 5 6 7 8 11 10 8 9 5 6 8 9 8 9 5 4 5 9 9 8 6 4 2 5 4 4 3 4 2 1 6 2 2 5 6 7 6 3 7 7 8
3 4 2 2 2 3 4 5 4 1 3 7 8 5 5 6 8 11 10 12 13 9 11 10 10 8 7 8 7 9 8 6 6 7 6 4 6 4 4 4 4 4 6 4 1 1 1 5 4 4 5 6 6 6
4 1 2 2 4 3 5 1 3 3 4 4 3 3 3 4 4 6 5 9 11 12 12 12 13 12 10 8 8 9 6 4 5 8 6 6 6 5 4 4 4 4 7 1 2 2 4 4 4 3 4 3 4 6
0 3 3 3 4 5 3 4 3 3 3 3 3 4 4 5 4 5 8 10 8 8 10 12 10 11 10 10 7 7 6 8 10 9 8 7 6 5 5 5 3 7 5 3 4 4 5 6 3 7 3 8 8 5
3 5 5 6 4 4 6 6 6 5 5 5 4 4 2 1 2 4 4 5 4 7 10 11 11 10 9 7 8 9 11 10 9 9 7 6 6 6 5 4 3 7 4 6 5 4 6 6 6 3 5 6 3 6
5 6 6 5 4 6 5 4 3 3 4 4 5 3 3 3 4 4 4 4 6 8 9 9 10 9 9 9 8 9 9 10 10 8 7 7 7 6 5 4 9 2 1 3 6 9 7 9 8 7 7 8 4 2
5 6 7 5 5 6 6 7 5 3 5 4 2 2 3 4 3 5 5 5 3 4 2 7 9 10 10 10 8 9 9 9 9 8 8 5 3 4 5 2 11 3 4 7 10 8 5 6 8 6 7 8 8 6
6 4 9 5 4 5 6 5 4 5 5 5 3 3 2 4 1 3 4 5 5 3 5 7 8 8 10 11 10 8 7 7 8 5 3 5 6 5 9 6 4 3 8 6 8 8 4 5 5 6 5 10 8 8
8 7 6 10 9 5 5 5 6 7 5 7 6 5 1 4 5 6 6 5 4 3 1 5 6 3 6 5 4 4 6 6 8 10 10 8 8 3 4 4 8 9 10 6 8 6 11 2 7 7 8 8 6 6
8 7 4 5 5 6 7 7 8 9 9 8 7 8 8 6 5 6 5 5 5 5 4 4 3 6 7 7 7 7 6 6 6 7 9 5 6 6 7 10 13 10 7 7 8 8 2 8 6 5 5 6 2 8
3 2 3 4 6 8 9 9 9 10 11 11 10 9 9 8 8 7 4 4 4 4 5 5 5 6 7 6 5 6 7 7 8 3 6 5 9 11 11 12 9 7 9 8 10 11 9 1 3 9 6 6 4 5
3 6 4 5 6 7 11 10 8 9 8 8 7 6 6 4 4 4 3 2 4 5 3 3 6 6 5 6 8 9 5 8 8 6 8 8 8 13 9 8 9 11 14 15 9 9 11 5 1 8 13 11 5 4
4 5 5 4 4 4 2 3 3 4 3 2 2 1 0 2 4 2 2 5 5 3 6 3 6 8 9 8 7 8 9 9 10 9 2 5 6 5 10 8 8 8 10 10 8 10 19 19 13 8 8 4 7 10
Wind_Direction
291 292 302 308 310 311 313 315 318 322 324 326 327 326 332 329 331 318 304 267 289 285 285 289 270 263 262 248 272 63 245 220 254 234 254 256 245 251 232 266 280 246 236 251 227 269 271 42 283 299 13 336 349 347
295 288 293 301 306 305 306 311 314 318 317 320 326 324 323 337 342 339 269 66 306 265 286 321 288 288 274 275 290 275 255 309 305 262 234 291 268 254 260 265 195 241 270 299 314 8 75 305 339 6 340 315 309 316
286 291 287 287 295 299 301 305 310 311 313 316 319 320 315 322 331 323 302 325 279 263 267 247 244 240 232 238 257 262 260 250 260 278 312 297 273 300 270 252 259 229 194 244 296 279 296 330 328 317 311 323 325 315
281 285 285 278 278 287 292 294 299 303 303 306 311 316 318 311 324 313 279 309 279 289 281 272 224 197 236 239 232 234 258 257 279 297 255 257 254 241 256 272 272 289 115 245 263 266 269 262 278 329 324 309 304 308
291 283 285 287 279 277 280 285 288 291 294 298 303 302 313 309 323 285 265 249 254 290 326 312 322 251 227 227 210 225 237 244 244 235 235 243 247 261 256 264 269 267 249 242 264 299 323 310 312 310 299 302 301 303
290 286 280 282 279 276 275 277 278 282 289 295 295 304 299 302 302 270 232 194 212 189 266 256 283 265 227 209 213 217 229 228 229 236 246 246 255 242 257 255 256 235 238 283 274 285 293 293 302 290 288 291 300 306
291 285 283 280 282 277 274 274 277 272 279 292 295 298 303 291 275 263 338 356 338 157 241 245 225 207 223 207 216 218 217 229 235 239 244 258 257 221 253 261 280 288 272 242 257 294 289 272 284 323 302 295 291 281
289 289 287 281 280 283 276 276 273 267 276 286 293 292 292 287 271 265 234 208 195 225 247 259 254 184 183 211 217 205 210 212 224 239 245 234 244 240 248 258 267 263 263 272 276 267 280 302 311 284 284 287 292 294
289 285 282 282 281 278 275 268 272 255 259 278 288 286 265 212 228 114 72 132 178 282 274 266 256 205 146 231 202 171 226 218 210 225 234 249 230 227 239 235 259 260 248 263 256 252 276 260 278 294 297 300 303 306
283 285 283 274 274 277 277 267 266 241 235 277 267 224 241 205 111 133 165 200 201 211 227 248 260 259 200 223 185 183 189 225 204 213 238 232 243 248 240 219 236 265 235 275 278 263 262 287 292 306 309 308 308 303
273 277 283 273 270 264 264 272 253 220 246 222 225 238 38 227 194 169 193 225 205 218 192 202 248 263 218 275 273 235 174 226 233 197 208 218 234 235 227 243 143 221 242 234 265 280 278 300 309 309 308 306 298 296
278 278 281 272 260 255 250 253 228 174 248 106 309 272 296 228 228 214 187 214 211 222 193 196 207 218 246 309 275 295 235 226 237 116 200 235 233 108 130 150 166 165 188 229 265 289 299 302 303 300 301 294 295 303
281 272 273 261 251 261 260 251 226 201 236 225 172 250 218 153 247 223 188 195 217 207 202 186 164 187 208 240 256 198 247 235 232 208 216 245 124 139 142 155 164 181 213 257 281 292 297 301 308 308 303 299 299 316
276 270 267 258 249 249 253 266 232 195 231 198 235 228 233 189 230 219 243 224 226 211 213 170 153 151 188 190 245 226 246 265 226 209 217 161 145 146 154 165 175 199 244 289 307 302 310 321 315 309 316 356 333 302
275 265 275 259 253 231 237 238 178 133 241 246 223 235 218 266 278 269 271 240 238 40 205 113 172 209 178 209 223 232 213 213 222 213 233 113 133 143 157 166 168 305 306 313 313 324 326 317 312 336 328 318 330 308
252 265 236 224 212 188 196 186 137 130 237 240 230 276 263 282 312 347 322 272 351 99 360 187 190 195 205 230 200 210 204 229 193 129 106 126 132 143 145 136 298 311 305 314 330 327 319 326 323 315 312 321 358 347
223 225 338 242 163 154 136 100 116 213 225 241 241 215 252 230 267 274 328 349 327 295 205 288 185 218 271 229 222 260 229 97 105 103 121 120 137 138 142 145 296 299 320 325 326 319 321 324 316 316 335 5 337 28
259 166 204 153 142 102 53 88 208 240 242 235 250 276 250 232 229 246 208 242 22 21 71 78 300 261 265 236 199 186 200 168 115 113 120 123 122 130 128 290 303 318 313 318 317 311 339 349 14 18 21 43 48 30
325 81 143 140 123 104 168 212 255 257 238 249 266 264 265 273 234 243 239 166 144 115 137 191 229 244 226 338 350 324 334 109 118 117 120 122 122 112 329 269 272 275 342 302 337 350 354 357 21 34 54 53 48 54
168 194 158 156 248 176 218 193 259 273 267 274 251 272 279 275 273 256 236 169 177 161 194 227 210 196 323 24 329 328 321 344 135 147 147 148 134 179 128 309 332 325 268 77 49 323 340 65 72 63 64 66 92 94
211 113 116 60 335 246 280 254 244 261 292 275 304 297 277 279 245 240 245 216 176 197 218 231 248 234 183 175 233 249 279 5 11 14 40 62 43 315 288 280 248 303 320 78 67 81 267 73 79 76 32 82 92 84
97 139 131 258 237 234 251 229 243 217 249 264 289 240 263 265 247 236 230 235 235 214 225 240 249 255 242 192 206 243 283 323 312 298 254 239 249 296 318 324 319 321 77 70 349 287 65 99 82 85 101 95 68 52
190 241 233 227 245 234 260 273 250 217 248 250 233 221 220 243 253 192 210 224 232 231 235 231 224 244 240 233 216 223 246 266 276 274 273 256 259 265 266 271 263 250 105 208 188 156 128 98 160 256 161 181 135 129
308 226 231 243 228 266 178 232 216 239 254 255 247 251 230 214 213 235 232 237 211 212 219 219 218 220 223 216 223 230 236 242 250 257 258 263 266 248 245 256 262 88 115 223 176 194 186 140 166 192 177 255 186 199
240 220 212 237 220 224 257 217 202 214 239 226 253 253 269 312 247 271 303 313 249 246 217 184 201 208 220 214 202 210 219 236 237 238 239 238 246 253 238 218 175 115 150 195 189 221 174 174 220 140 207 97 36 98
244 207 215 241 206 218 231 282 293 269 278 249 232 229 219 212 230 240 247 242 252 228 220 170 180 191 209 223 213 209 212 210 226 238 237 224 230 250 262 203 146 83 116 213 235 234 202 199 189 150 126 140 243 37
252 244 209 245 268 263 273 273 318 277 257 257 234 238 237 235 241 233 230 225 241 116 92 165 183 191 192 189 207 222 204 191 204 220 218 208 268 271 275 252 119 134 161 230 247 282 180 141 155 164 152 153 151 114
251 265 255 263 238 276 274 281 279 252 246 294 294 245 202 312 345 257 255 265 18 36 150 164 164 188 181 176 181 187 201 191 181 204 174 213 224 105 88 86 104 108 215 231 311 332 226 179 149 140 138 111 101 89
223 232 255 270 270 243 249 249 248 252 282 298 287 310 220 216 230 255 301 329 328 310 48 147 161 195 129 140 170 193 171 181 181 189 221 195 161 87 117 160 168 183 211 191 84 35 29 84 135 142 115 109 115 105
260 261 268 264 250 243 228 221 262 274 281 281 299 298 285 281 298 301 305 295 276 252 221 201 223 184 192 188 188 191 197 195 196 220 205 139 124 155 171 184 179 195 170 174 141 118 61 122 126 132 96 124 164 78
280 267 261 247 263 268 273 271 266 273 282 279 272 270 279 288 285 281 278 278 294 270 234 214 212 212 208 188 196 199 198 186 203 158 78 148 159 165 179 170 164 159 168 152 169 170 168 86 171 118 156 205 159 238
254 222 223 241 270 294 309 278 268 273 290 296 285 306 300 332 307 355 341 320 257 243 245 223 187 175 142 147 198 186 221 169 163 178 185 203 156 158 168 191 192 179 169 187 198 170 153 239 220 173 70 330 236 211
230 237 239 256 255 254 299 316 315 308 278 277 288 309 288 179 247 275 250 213 243 257 140 163 119 129 156 164 166 175 184 160 109 76 101 251 180 152 176 170 187 186 177 163 181 142 155 195 223 126 136 76 58 71